Location: Igri�s
(42.2144°N, 0.4320°W)
Time: 19:00:24
(UTC+00:00)

Cosmos 405 Rocket - Pass Details

Date: 13 August 2020
Orbit: 490 x 553 km, 81.3° (Epoch: 20 September)

Event Time Altitude Azimuth Distance (km) Brightness Sun altitude
Exits shadow 21:17:48 36° 222° (SW) 792 3.5 -21.5°
Maximum altitude 21:19:01 57° 282° (WNW) 593 3.1 -21.6°
Drops below altitude 10° 21:22:43 10° 1° (N) 1,716 5.9 -22.1°
Sets 21:24:54 0° 6° (N) 2,614 6.9 -22.4°
